Погода в Ильеусе

Бразилия     14°47′23″S   39°03′01″W
темп.,
°C
ветер,
м/с
пор.,
м/с
влажн.,
%
обл.,
%
осадки,
мм/ч
давл.,
гПа
погр.,
м
27 февраля, сб
сб2700:00+24в358688 0.1 1013387
03:00+23в128663 0.1 1012445
06:00+24св1184100 0.2 1013401
09:00+27в347289 0.8 1014895
12:00+28в456878 0.4 1014951
15:00+28вюв456765 0.5 10111060
18:00+26вюв368140 0.1 1011431
21:00+24вюв358421 0.1 1013361
28 февраля, вс
вс2800:00+23ю128829 0.8 1013234
03:00+22зюз239364 2.6 1011122
06:00+23ююз248939 0.3 1012331
09:00+26ю258661 3.9 1013489
12:00+27в4685100 4.6 1012915
15:00+26вюв4787100 9.8 1010686
18:00+25вюв488851 1.9 1010464
21:00+25юв599159 4.1 1012547
1 марта, пн
пн100:00+24вюв378899 0.7 1012451
03:00+24юв369199 1.3 1010373
06:00+23юв359179 2.4 1011339
09:00+25вюв478889 7.3 1013613
12:00+28вюв566363 1.3 10121313
15:00+27вюв466581 1.3 10111220
18:00+25вюв477599 0.0 1011693
21:00+24в477896 0.0 1013639
2 марта, вт
вт200:00+24вюв368328 0.2 1013473
03:00+24в368326 0.4 1012452
06:00+23вюв24840 0.0 1013428
09:00+27вюв45659 0.1 10151117
12:00+28в45611 0.0 10141177
15:00+28вюв456313 0.0 10121205
18:00+25вюв477781 0.0 1013653
21:00+25вюв478550 0.2 1014525
3 марта, ср
ср300:00+24вюв37884 1.0 1015406
03:00+24в348926 4.9 1014327
06:00+24в128888 4.1 1015300
09:00+25всв248789 8.3 1017422
12:00+26в248452 2.5 1016723
15:00+28вюв346729 3.7 10131099
18:00+25вюв357613 0.0 1013485
21:00+24юв35828 0.1 1015406